Regional Weather Roundup
Issued by NWS Charleston, SC

Current Version | Previous Version | Graphics & Text | Print | Product List | Glossary On
Versions: 1 2 3 4 5 6 7 8 9 10 11 12 13 14 15 16 17 18 19 20 21 22 23 24 25 26 27 28 29 30 31 32 33 34 35 36 37 38 39 40 41 42 43 44 45 46 47 48 49 50
807
ASUS42 KCHS 110728
RWRCHS

REGIONAL WEATHER ROUNDUP
NATIONAL WEATHER SERVICE CHARLESTON SC
200 AM EST THU FEB 11 2016

NOTE: "FAIR" INDICATES FEW OR NO CLOUDS BELOW 12,000 FEET WITH NO
SIGNIFICANT WEATHER AND/OR OBSTRUCTIONS TO VISIBILITY.

NOT ALL STATIONS ARE QUALITY CONTROLLED BY THE NATIONAL
WEATHER SERVICE. USE DATA WITH CAUTION...ESPECIALLY
DEWPOINT OBSERVATIONS.

SCZ027-030-031-034>040-042>050-110800-
...SOUTHEAST SOUTH CAROLINA...

CITY           SKY/WX    TMP DP  RH WIND       PRES   REMARKS
N CHARLESTON   CLEAR     33  16  49 W9        30.17S WCI  25
WATERFRONT PRK   N/A     36  19  50 W5        30.01S WCI  32
MOUNT PLEASANT FAIR      36  18  48 W9G17     30.17S WCI  29
JOHNS ISLAND   FAIR      36  18  48 W8        30.19R WCI  29
PINOPOLIS        N/A     36  19  51 W10       30.08R WCI  28
MONCKS CORNER  FAIR      28  12  50 CALM      30.17R
SUMMERVILLE    FAIR      34  18  51 SW6       30.18S WCI  29
BEAUFORT MCAS  CLEAR     36  18  48 W9        30.20R WCI  29
BEAUFORT ARPT  FAIR      36  19  51 W7        30.20R WCI  30
HILTON HEAD IS CLEAR     36  21  55 W5        30.21F WCI  32
WALTERBORO     MOSUNNY   32  21  64 W5        30.19S WCI  27
ALLENDALE      PTSUNNY   32  19  59 CALM      30.18S

...SOUTHERN MIDLANDS AND PEE DEE...

CITY           SKY/WX    TMP DP  RH WIND       PRES   REMARKS
GEORGETOWN     FAIR      28  18  64 W3        30.16S
KINGSTREE      FAIR      28  16  59 CALM      30.14F
ORANGEBURG     CLEAR     31  14  49 W7        30.16S WCI  24
BARNWELL       FAIR      32  18  55 CALM      30.18S
AIKEN          FAIR      30  12  47 W7        30.18S WCI  23
MANNING        FAIR      32  14  47 SW3       30.16R
COLUMBIA       CLEAR     31  13  47 W9        30.14R WCI  23
SUMTER         CLEAR     29  13  50 W5        30.11S WCI  24
FLORENCE       CLEAR     28  14  55 W7        30.13R WCI  21
MYRTLE BEACH   CLEAR     30  12  47 W6        30.15S WCI  24
N MYRTLE BEACH CLEAR     31  15  52 W5        30.12S WCI  26

$$

GAZ063-065-086>088-099>101-113>116-118-119-134>141-150-110800-
...SOUTHEAST GEORGIA...

CITY           SKY/WX    TMP DP  RH WIND       PRES   REMARKS
SAVANNAH ARPT  CLEAR     31  20  63 W5        30.21R WCI  26
HUNTER AAF     CLEAR     35  19  52 W9        30.17F WCI  28
FORT STEWART   CLEAR     34  19  54 W5        30.19S WCI  30
STATESBORO     CLEAR     38  12  34 W5        30.20R WCI  34
SYLVANIA       SUNNY     31  25  78 CALM      30.20S
CLAXTON        FAIR      33  23  65 SW5       30.21S WCI  29

...CSRA...CENTRAL AND FAR SOUTHEAST GEORGIA...

CITY           SKY/WX    TMP DP  RH WIND       PRES   REMARKS
THOMSON        MOCLDY    32  19  59 SW3       30.21F
AUGUSTA-BUSH   PTCLDY    29  16  58 W5        30.19R WCI  24
AUGUSTA-DANIEL NOT AVBL
SWAINSBORO     FAIR      32  19  59 CALM      30.20S
VIDALIA        CLEAR     32  21  64 CALM      30.20S
EASTMAN        FAIR      29  23  76 S5        30.24R WCI  24
HAZLEHURST     FAIR      35  21  57 CALM      30.20F
ALMA           CLEAR     31  24  75 SW3       30.23S
WAYCROSS       CLEAR     33  27  80 SW3       30.23F
JESUP          FAIR      32  28  86 SW3       30.23S
BAXLEY         FAIR      32  27  80 CALM      30.22S
BRUNSWICK      CLEAR     36  25  64 W5        30.24F WCI  32
SAINT SIMONS   CLEAR     37  23  56 W6        30.23R WCI  32

$$

SCZ027-028-034-036>038-045-046-048>050-GAZ119-141-110800-
...LAKE AND SUPPLEMENTAL COASTAL OBSERVATIONS...

STATION/POSITION TIME  TEMP    WIND        PRES    WAVE   SWELL
                       AIR SEA DIR/SP/G            HT/PER HT/PER/DIR
                 (UTC) (F)     (DEG/KT/KT) (MB)    (FT/S) (FT/S/D)
WINYAH BAY       0600   32     250/  5     1020.0R
LAKE MURRAY      0600   34     280/ 11/ 16 1019.6R
ACE BASIN NERRS  0645   35     270/  3     1022.0R
FORT PULASKI     0700   39 50  280/ 14/ 15 1022.6F
SAPELO ISLAND    0700   38     260/  6     1023.0S

$$

ANZ835-935-AMZ111-154-330-350-352-354-370-450-454-472-110800-
...C-MAN AND BUOY OBSERVATIONS...

STATION/POSITION TIME  TEMP    WIND        PRES    WAVE   SWELL
                       AIR SEA DIR/SP/G            HT/PER HT/PER/DIR
                 (UTC) (F)     (DEG/KT/KT) (MB)    (FT/S) (FT/S/D)
BUOY 41004       0650   46 63  280/ 25/ 31 1020.3R   8/ 7
BUOY 41008       0650   44 52  280/ 19/ 21 1023.2R   3/ 3
FOLLY BEACH CMAN 0700   34     260/  3/  5 1022.2R
CAPERS NEARSHORE 0608   40     290/ 16/ 19 1021.1R
FRIPP NEARSHORE  0600   43     280/ 19/ 21 1021.3R


STATION/POSITION TIME  TEMP    WIND        PRES    WAVE   SWELL
                       AIR SEA DIR/SP/G            HT/PER HT/PER/DIR
                 (UTC) (F)     (DEG/KT/KT) (MB)    (FT/S) (FT/S/D)
5E ST. MARYS GA  0621      55                N/A     2/15   2/ 90/15
FRYING PAN BUOY  0700   42 59  280/ 23/ 29 1019.3F
BUOY 41025       0650   39 71  300/ 27/ 33 1016.4R   8/ 7   2/120/13
CAPE LOOKOUT NC  NOT AVBL
BUOY 41002       0650   52 68  290/ 25/ 33   N/A    15/ 9
BUOY 41010       0620   60 72              1021.8F
ST AUGUSTINE FL  0700   37 55  250/  4/  5 1025.1R


$$




USA.gov is the U.S. government's official web portal to all federal, state and local government web resources and services.